GW3324 Weather Reports


time (UTC)temp
C
wind
direction
speed
KPH
gust
KPH
rain 1hr
cm
rain 24hr
cm
rain mn
cm
humidity
%
barometer
mb
20260905205013 35 252 4.8 11.3 0.00 0.56 0.56 46 1012.1
20260905204520 36 57 3.2 12.9 0.00 0.56 0.56 46 1012.2
20260905204013 35 302 1.6 12.9 0.00 0.56 0.56 48 1012.2
20260905203514 35 289 1.6 9.7 0.00 0.56 0.56 49 1012.2
20260905203025 35 110 3.2 9.7 0.00 0.56 0.56 47 1012.3
20260905202515 35 30 0.0 9.7 0.00 0.56 0.56 47 1012.4
20260905202003 35 82 1.6 14.5 0.00 0.56 0.56 45 1012.5
20260905201505 35 300 3.2 14.5 0.00 0.56 0.56 47 1012.6
20260905201003 35 265 6.4 14.5 0.00 0.56 0.56 46 1012.6
20260905200507 35 284 1.6 9.7 0.00 0.56 0.56 48 1012.7
20260905200013 35 130 1.6 9.7 0.00 0.56 0.56 48 1012.7
20260905195509 35 128 1.6 11.3 0.00 0.56 0.56 47 1012.7
20260905195009 35 304 3.2 11.3 0.00 0.56 0.56 46 1012.9
20260905194517 36 92 4.8 16.1 0.00 0.56 0.56 45 1012.9
20260905194011 36 301 4.8 16.1 0.00 0.56 0.56 45 1013.1
20260905193516 35 282 3.2 11.3 0.00 0.56 0.56 46 1013.1
20260905193020 35 284 3.2 11.3 0.00 0.56 0.56 46 1013.2
20260905192518 35 97 3.2 8.0 0.00 0.56 0.56 47 1013.3
20260905192015 35 252 4.8 8.0 0.00 0.56 0.56 46 1013.2
20260905191529 35 344 3.2 6.4 0.00 0.56 0.56 49 1013.3
20260905191017 35 200 0.0 4.8 0.00 0.56 0.56 47 1013.4
20260905190517 35 215 0.0 9.7 0.00 0.56 0.56 47 1013.5
20260905190010 35 29 0.0 11.3 0.00 0.56 0.56 47 1013.6
20260905185507 35 263 3.2 11.3 0.00 0.56 0.56 48 1013.6
20260905185009 34 301 4.8 11.3 0.00 0.56 0.56 47 1013.7
20260905184513 34 182 4.8 11.3 0.00 0.56 0.56 50 1013.7
20260905184010 33 152 1.6 11.3 0.00 0.56 0.56 47 1013.7
20260905183512 33 277 4.8 11.3 0.00 0.56 0.56 49 1013.7
20260905183019 33 225 3.2 9.7 0.00 0.56 0.56 49 1014.0
20260905182514 34 138 1.6 9.7 0.00 0.56 0.56 48 1014.0
20260905182012 33 277 3.2 9.7 0.00 0.56 0.56 50 1014.1
20260905181534 33 248 0.0 9.7 0.00 0.56 0.56 51 1014.2
20260905181015 33 211 4.8 9.7 0.00 0.56 0.56 54 1014.2
20260905180516 33 115 3.2 6.4 0.00 0.56 0.56 52 1014.2
20260905180028 33 202 3.2 9.7 0.00 0.56 0.56 50 1014.3
20260905175519 33 31 3.2 9.7 0.00 0.56 0.56 51 1014.3
20260905175018 33 285 0.0 6.4 0.00 0.56 0.56 50 1014.4
20260905174512 32 228 1.6 6.4 0.00 0.56 0.56 54 1014.4
20260905174006 32 280 1.6 12.9 0.00 0.56 0.56 50 1014.4
20260905173509 32 211 3.2 12.9 0.00 0.56 0.56 56 1014.4
20260905173016 32 198 1.6 12.9 0.00 0.56 0.56 54 1014.5
20260905172512 32 111 3.2 12.9 0.00 0.56 0.56 54 1014.5
20260905172016 32 277 4.8 11.3 0.00 0.56 0.56 57 1014.4
20260905171526 31 96 6.4 11.3 0.00 0.56 0.56 54 1014.5
20260905171014 31 81 1.6 9.7 0.00 0.56 0.56 56 1014.5
20260905170515 31 26 1.6 8.0 0.00 0.56 0.56 55 1014.6
20260905170027 31 288 3.2 8.0 0.00 0.56 0.56 56 1014.8
20260905165520 31 292 1.6 11.3 0.00 0.56 0.56 56 1014.9
20260905165016 31 81 4.8 12.9 0.00 0.56 0.56 55 1015.1
20260905164532 31 75 3.2 12.9 0.00 0.56 0.56 57 1015.3
20260905164018 31 328 0.0 8.0 0.00 0.56 0.56 58 1015.4
20260905163519 31 232 1.6 8.0 0.00 0.56 0.56 58 1015.3
20260905163035 31 233 1.6 6.4 0.00 0.56 0.56 62 1015.4
20260905162511 30 211 1.6 9.7 0.00 0.56 0.56 58 1015.4
20260905162011 30 37 1.6 9.7 0.00 0.56 0.56 58 1015.3
20260905161520 30 138 1.6 8.0 0.00 0.56 0.56 61 1015.3
20260905161014 30 301 1.6 8.0 0.00 0.56 0.56 60 1015.2
20260905160515 30 86 0.0 9.7 0.00 0.56 0.56 62 1015.2
20260905160039 29 228 4.8 9.7 0.00 0.56 0.56 62 1015.3
20260905155517 29 146 3.2 9.7 0.00 0.56 0.56 63 1015.3
20260905155014 29 119 1.6 12.9 0.00 0.56 0.56 64 1015.3
20260905154530 28 155 1.6 12.9 0.00 0.56 0.56 63 1015.4
20260905154018 28 178 4.8 9.7 0.00 0.56 0.56 66 1015.5
20260905153517 28 206 3.2 9.7 0.00 0.56 0.56 67 1015.6
20260905153038 28 339 1.6 8.0 0.00 0.56 0.56 67 1015.4
20260905152519 27 63 3.2 9.7 0.00 0.56 0.56 68 1015.3
20260905152019 27 71 1.6 11.3 0.00 0.56 0.56 70 1015.3
20260905151533 27 176 3.2 11.3 0.00 0.56 0.56 73 1015.4
20260905151013 27 41 1.6 8.0 0.00 0.56 0.56 70 1015.3
20260905150510 26 54 0.0 14.5 0.00 0.56 0.56 72 1015.3
20260905150023 26 74 4.8 14.5 0.00 0.56 0.56 72 1015.5
20260905145516 26 83 1.6 12.9 0.00 0.56 0.56 75 1015.6
20260905145016 26 204 3.2 12.9 0.00 0.56 0.56 76 1015.7
20260905144534 26 69 1.6 16.1 0.00 0.56 0.56 76 1015.7
20260905144016 25 69 3.2 16.1 0.00 0.56 0.56 75 1015.8
20260905143516 25 209 3.2 16.1 0.00 0.56 0.56 76 1015.8
20260905143047 25 88 4.8 16.1 0.00 0.56 0.56 76 1015.8
20260905142517 25 76 1.6 14.5 0.00 0.56 0.56 78 1015.7
20260905142018 25 94 3.2 14.5 0.00 0.56 0.56 78 1015.8
20260905141534 25 100 4.8 14.5 0.00 0.56 0.56 78 1015.8
20260905141017 24 66 3.2 20.9 0.00 0.56 0.56 82 1015.8
20260905140504 24 51 6.4 20.9 0.00 0.56 0.56 80 1015.8
20260905140003 24 101 11.3 20.9 0.00 0.56 0.56 80 1015.9
20260905135504 24 87 4.8 14.5 0.00 0.56 0.56 81 1016.1
20260905135004 24 72 4.8 14.5 0.00 0.56 0.56 81 1016.3
20260905134503 25 77 6.4 12.9 0.00 0.56 0.56 82 1016.1
20260905134003 24 102 6.4 14.5 0.00 0.56 0.56 84 1016.2
20260905133503 24 67 8.0 19.3 0.00 0.56 0.56 83 1016.4
20260905133004 24 67 4.8 19.3 0.00 0.56 0.56 84 1016.3
20260905132503 23 90 11.3 19.3 0.00 0.56 0.56 85 1016.3
20260905132003 23 74 9.7 27.4 0.00 0.56 0.56 85 1016.3
20260905131504 23 60 6.4 27.4 0.00 0.56 0.56 87 1016.2
20260905131004 23 70 9.7 22.5 0.00 0.56 0.56 88 1016.2
20260905130504 23 84 11.3 20.9 0.00 0.56 0.56 88 1016.1
20260905130003 23 83 9.7 19.3 0.00 0.56 0.56 89 1016.2
20260905125505 23 97 9.7 19.3 0.00 0.56 0.56 89 1016.4
20260905125003 23 87 4.8 17.7 0.00 0.56 0.56 89 1016.6
20260905124505 23 114 6.4 19.3 0.00 0.56 0.56 89 1016.5
20260905124003 23 109 4.8 19.3 0.00 0.56 0.56 89 1016.5
20260905123503 22 93 6.4 19.3 0.00 0.56 0.56 90 1016.3
20260905123004 22 76 8.0 19.3 0.00 0.56 0.56 90 1016.2
20260905122506 22 71 6.4 14.5 0.00 0.56 0.56 91 1015.6
20260905122004 22 214 0.0 4.8 0.00 0.56 0.56 91 1015.5
20260905121504 22 205 0.0 3.2 0.00 0.56 0.56 91 1015.4
20260905121005 22 286 0.0 3.2 0.00 0.56 0.56 91 1015.4
20260905120503 22 300 0.0 4.8 0.00 0.56 0.56 91 1015.3
20260905120004 22 19 0.0 14.5 0.00 0.56 0.56 91 1015.3
20260905115504 22 130 0.0 14.5 0.00 0.56 0.56 91 1015.3
20260905115004 22 70 1.6 9.7 0.00 0.56 0.56 92 1015.3
20260905114506 22 86 3.2 11.3 0.00 0.56 0.56 91 1015.4
20260905114003 22 67 1.6 12.9 0.00 0.56 0.56 91 1015.3
20260905113504 22 80 4.8 12.9 0.00 0.56 0.56 91 1015.3
20260905113004 22 90 3.2 9.7 0.00 0.56 0.56 91 1015.0
20260905112504 22 58 4.8 9.7 0.00 0.56 0.56 91 1014.7
20260905112003 23 94 1.6 8.0 0.00 0.56 0.56 91 1014.7
20260905111504 23 69 0.0 14.5 0.00 0.56 0.56 91 1014.7
20260905111004 23 71 4.8 14.5 0.00 0.56 0.56 91 1014.9
20260905110503 23 71 1.6 9.7 0.00 0.56 0.56 92 1014.8
20260905110004 23 75 3.2 9.7 0.00 0.56 0.56 92 1014.9
20260905105506 23 192 1.6 9.7 0.00 0.56 0.56 92 1014.8
20260905105005 23 94 3.2 12.9 0.00 0.56 0.56 92 1014.9
20260905104510 23 80 4.8 16.1 0.00 0.56 0.56 93 1014.9
20260905104005 23 121 8.0 16.1 0.00 0.56 0.56 93 1014.5
20260905103503 23 71 1.6 4.8 0.00 0.56 0.56 94 1014.1
20260905103013 23 132 0.0 1.6 0.00 0.56 0.56 94 1014.0
20260905102503 23 132 0.0 1.6 0.00 0.56 0.56 94 1013.9
20260905102004 23 132 0.0 1.6 0.00 0.56 0.56 93 1013.8
20260905101505 23 123 0.0 1.6 0.00 0.56 0.56 93 1013.8
20260905101003 23 119 0.0 1.6 0.00 0.56 0.56 93 1014.0
20260905100506 23 119 0.0 1.6 0.03 0.56 0.56 93 1014.0
20260905100017 23 119 0.0 1.6 0.03 0.56 0.56 93 1014.0
20260905095506 23 119 0.0 1.6 0.03 0.56 0.56 93 1014.1
20260905095006 23 119 0.0 3.2 0.03 0.56 0.56 93 1014.2
20260905094511 23 119 0.0 3.2 0.03 0.56 0.56 93 1014.1
20260905094005 23 201 0.0 1.6 0.03 0.56 0.56 93 1014.0
20260905093509 23 201 0.0 1.6 0.03 0.56 0.56 93 1014.0
20260905093006 23 201 0.0 1.6 0.03 0.56 0.56 92 1014.0
20260905092505 23 201 0.0 3.2 0.03 0.56 0.56 92 1013.8
20260905092003 23 202 0.0 3.2 0.03 0.56 0.56 91 1013.6
20260905091509 24 178 0.0 4.8 0.03 0.56 0.56 91 1013.7
20260905091006 24 243 3.2 6.4 0.30 0.56 0.56 91 1013.6
20260905090506 24 107 1.6 6.4 0.53 0.53 0.53 91 1013.8
20260905090003 24 9 0.0 3.2 0.53 0.53 0.53 92 1013.9
20260905085508 24 9 0.0 3.2 0.53 0.53 0.53 92 1013.9
20260905085006 24 9 0.0 3.2 0.53 0.53 0.53 92 1013.8
20260905084510 24 233 0.0 8.0 0.53 0.53 0.53 92 1013.7
20260905084008 24 24 1.6 8.0 0.53 0.53 0.53 91 1013.8
20260905083507 24 233 0.0 3.2 0.53 0.53 0.53 90 1013.4
20260905083008 24 233 0.0 4.8 0.53 0.53 0.53 89 1013.5
20260905082507 25 236 1.6 9.7 0.53 0.53 0.53 88 1013.5
20260905082008 25 90 1.6 24.1 0.53 0.53 0.53 86 1013.6
20260905081512 25 109 8.0 24.1 0.53 0.53 0.53 84 1013.6
20260905081009 26 34 12.9 24.1 0.25 0.25 0.25 86 1014.0
20260905080508 26 281 0.0 6.4 0.00 0.00 0.00 83 1013.6
20260905080010 26 295 1.6 6.4 0.00 0.00 0.00 84 1013.6
20260905075508 25 298 4.8 6.4 0.00 0.00 0.00 85 1013.6
20260905075008 25 176 0.0 0.0 0.00 0.00 0.00 85 1013.6
20260905074506 25 176 0.0 0.0 0.00 0.00 0.00 85 1013.5
20260905074011 25 176 0.0 0.0 0.00 0.00 0.00 84 1013.6
20260905073506 25 176 0.0 0.0 0.00 0.00 0.00 84 1013.6
20260905073017 25 176 0.0 0.0 0.00 0.00 0.00 84 1013.6
20260905072509 25 176 0.0 0.0 0.00 0.00 0.00 84 1013.7
20260905072009 25 176 0.0 0.0 0.00 0.00 0.00 84 1013.6
20260905071513 25 176 0.0 0.0 0.00 0.00 0.00 84 1013.7
20260905071009 25 176 0.0 0.0 0.00 0.00 0.00 84 1013.8
20260905070511 26 176 0.0 0.0 0.00 0.00 0.00 84 1013.9
20260905070017 26 176 0.0 0.0 0.00 0.00 0.00 84 1014.0
20260905065511 26 176 0.0 0.0 0.00 0.00 0.00 84 1014.0
20260905065010 26 176 0.0 0.0 0.00 0.00 0.00 84 1014.0
20260905064526 26 176 0.0 0.0 0.00 0.00 0.00 84 1014.0
20260905064012 26 176 0.0 1.6 0.00 0.00 0.00 84 1014.1
20260905063509 26 176 0.0 1.6 0.00 0.00 0.00 84 1014.2
20260905063012 26 107 0.0 1.6 0.00 0.00 0.00 84 1014.3
20260905062511 26 107 0.0 0.0 0.00 0.00 0.00 83 1014.4
20260905062011 26 107 0.0 0.0 0.00 0.00 0.00 83 1014.4
20260905061516 26 107 0.0 0.0 0.00 0.00 0.00 83 1014.5
20260905061011 26 107 0.0 0.0 0.00 0.00 0.00 83 1014.5
20260905060511 26 107 0.0 1.6 0.00 0.00 0.00 83 1014.5
20260905060027 26 107 0.0 1.6 0.00 0.00 0.00 84 1014.4
20260905055512 26 107 0.0 1.6 0.00 0.00 0.00 84 1014.6
20260905055012 26 107 0.0 0.0 0.00 0.00 0.00 84 1014.5
20260905054516 26 107 0.0 0.0 0.00 0.00 0.00 83 1014.6
20260905054010 26 107 0.0 0.0 0.00 0.00 0.00 83 1014.6
20260905053512 26 107 0.0 0.0 0.00 0.00 0.00 83 1014.7
20260905053029 26 107 0.0 0.0 0.00 0.00 0.00 83 1014.6
20260905052517 26 107 0.0 0.0 0.00 0.00 0.00 82 1014.6
20260905052012 26 107 0.0 1.6 0.00 0.00 0.00 82 1014.6
20260905051512 26 107 0.0 1.6 0.00 0.00 0.00 82 1014.5
20260905051013 26 106 0.0 1.6 0.00 0.00 0.00 82 1014.5
20260905050510 26 106 0.0 0.0 0.00 0.00 0.00 81 1014.7
20260905050020 26 106 0.0 0.0 0.00 0.00 0.00 81 1014.7
20260905045506 26 106 0.0 0.0 0.00 0.00 0.00 80 1014.7
20260905045005 26 106 0.0 0.0 0.00 0.00 0.00 80 1014.8
20260905044503 27 106 0.0 0.0 0.00 0.00 0.00 80 1014.9
20260905044003 27 106 0.0 0.0 0.00 0.00 0.00 80 1014.6
20260905043504 27 106 0.0 1.6 0.00 0.00 0.00 79 1014.6
20260905043006 27 106 0.0 1.6 0.00 0.00 0.00 79 1014.7
20260905042505 27 106 0.0 0.0 0.00 0.00 0.00 79 1014.7
20260905042006 27 106 0.0 0.0 0.00 0.00 0.00 79 1014.6
20260905041510 27 106 0.0 0.0 0.00 0.00 0.00 78 1014.8
20260905041008 27 106 0.0 0.0 0.00 0.00 0.00 78 1014.7
20260905040509 27 106 0.0 0.0 0.00 0.00 0.00 78 1014.7
20260905040019 27 106 0.0 1.6 0.00 0.00 0.00 77 1014.7
20260905035514 27 106 0.0 1.6 0.00 0.00 0.00 77 1014.8
20260905035012 27 106 0.0 3.2 0.00 0.00 0.00 77 1014.7
20260905034525 27 106 0.0 3.2 0.00 0.00 0.00 77 1014.8
20260905034003 27 181 0.0 0.0 0.00 0.00 0.00 77 1014.7
20260905033505 27 181 0.0 0.0 0.00 0.00 0.00 77 1014.7
20260905033004 27 181 0.0 0.0 0.00 0.00 0.00 76 1014.8
20260905032506 27 182 0.0 0.0 0.00 0.00 0.00 76 1014.8
20260905032007 27 182 0.0 1.6 0.00 0.00 0.00 76 1014.7
20260905031510 27 181 0.0 3.2 0.00 0.00 0.00 76 1014.9
20260905031007 27 180 0.0 3.2 0.00 0.00 0.00 76 1015.0
20260905030507 28 142 0.0 0.0 0.00 0.00 0.00 76 1015.0
20260905030013 28 142 0.0 0.0 0.00 0.00 0.00 75 1014.9
20260905025511 28 138 0.0 1.6 0.00 0.00 0.00 75 1014.9
20260905025010 28 138 0.0 1.6 0.00 0.00 0.00 74 1015.0
20260905024530 28 138 0.0 1.6 0.00 0.00 0.00 74 1014.9
20260905024012 28 217 0.0 0.0 0.00 0.00 0.00 74 1014.9
20260905023514 28 217 0.0 0.0 0.00 0.00 0.00 74 1014.8
20260905023025 28 217 0.0 0.0 0.00 0.00 0.00 73 1014.8
20260905022504 28 217 0.0 0.0 0.00 0.00 0.00 73 1014.7
20260905022004 28 217 0.0 0.0 0.00 0.00 0.00 73 1014.7
20260905021507 28 217 0.0 0.0 0.00 0.00 0.00 72 1014.8
20260905021005 28 217 0.0 1.6 0.00 0.00 0.00 72 1014.8
20260905020508 28 217 0.0 1.6 0.00 0.00 0.00 71 1014.8
20260905020020 28 217 0.0 0.0 0.00 0.00 0.00 71 1014.7
20260905015509 29 217 0.0 0.0 0.00 0.00 0.00 71 1014.7
20260905015013 29 217 0.0 0.0 0.00 0.00 0.00 71 1014.8
20260905014516 29 217 0.0 0.0 0.00 0.00 0.00 71 1014.6
20260905014010 29 217 0.0 1.6 0.00 0.00 0.00 70 1014.5
20260905013515 29 217 0.0 1.6 0.00 0.00 0.00 70 1014.5
20260905013027 29 169 0.0 1.6 0.00 0.00 0.00 70 1014.4
20260905012514 29 169 0.0 1.6 0.00 0.00 0.00 70 1014.3
20260905012016 29 169 0.0 1.6 0.00 0.00 0.00 70 1014.2
20260905011528 30 209 0.0 0.0 0.00 0.00 0.00 69 1014.1
20260905011005 30 209 0.0 1.6 0.00 0.00 0.00 69 1014.0
20260905010506 30 209 0.0 1.6 0.00 0.00 0.00 68 1014.1
20260905010009 30 209 0.0 1.6 0.00 0.00 0.00 68 1014.1
20260905005507 30 209 0.0 1.6 0.00 0.00 0.00 67 1014.1
20260905005013 30 209 0.0 1.6 0.00 0.00 0.00 67 1014.0
20260905004516 30 209 0.0 1.6 0.00 0.00 0.00 66 1014.0
20260905004010 30 209 0.0 1.6 0.00 0.00 0.00 65 1014.0
20260905003511 30 209 0.0 0.0 0.00 0.00 0.00 65 1014.0
20260905003020 31 209 0.0 0.0 0.00 0.00 0.00 64 1014.0
20260905002515 31 209 0.0 1.6 0.00 0.00 0.00 63 1013.9
20260905002017 31 209 0.0 3.2 0.00 0.00 0.00 64 1013.8
20260905001525 31 210 0.0 3.2 0.00 0.00 0.00 62 1013.7
20260905001015 31 194 0.0 1.6 0.00 0.00 0.00 60 1013.8
20260905000518 32 129 0.0 0.0 0.00 0.00 0.00 60 1013.8
20260905000034 32 129 0.0 0.0 0.00 0.00 0.00 59 1013.8
20260904235518 32 129 0.0 0.0 0.00 0.00 0.00 59 1013.8
20260904235006 32 129 0.0 0.0 0.00 0.00 0.00 58 1013.7
20260904234510 32 129 0.0 0.0 0.00 0.00 0.00 56 1013.8
20260904234009 33 129 0.0 0.0 0.00 0.00 0.00 55 1013.8
20260904233510 33 129 0.0 1.6 0.00 0.00 0.00 53 1013.8
20260904233016 33 129 0.0 1.6 0.00 0.00 0.00 54 1013.8
20260904232511 33 101 0.0 1.6 0.00 0.00 0.00 53 1013.9
20260904232013 33 73 0.0 1.6 0.00 0.00 0.00 51 1014.0
20260904231526 34 72 0.0 4.8 0.00 0.00 0.00 52 1013.9
20260904231015 34 74 0.0 4.8 0.00 0.00 0.00 49 1014.0
20260904230517 34 90 1.6 3.2 0.00 0.00 0.00 48 1013.9
20260904230032 35 96 0.0 3.2 0.00 0.00 0.00 52 1014.0
20260904225514 35 153 0.0 3.2 0.00 0.00 0.00 48 1014.0
20260904225013 35 100 1.6 3.2 0.00 0.00 0.00 46 1014.1
20260904224532 35 334 0.0 3.2 0.00 0.00 0.00 48 1014.2
20260904224018 35 126 1.6 8.0 0.00 0.00 0.00 47 1014.3
20260904223507 35 293 1.6 8.0 0.00 0.00 0.00 46 1014.3
20260904223022 35 302 3.2 8.0 0.00 0.00 0.00 47 1014.3
20260904222517 35 246 3.2 8.0 0.00 0.00 0.00 47 1014.3
20260904222012 35 275 3.2 8.0 0.00 0.00 0.00 46 1014.3
20260904221523 35 38 1.6 9.7 0.00 0.00 0.00 47 1014.3
20260904221012 35 62 3.2 9.7 0.00 0.00 0.00 47 1014.3
20260904220517 36 96 1.6 6.4 0.00 0.00 0.00 47 1014.3
20260904220026 36 311 1.6 6.4 0.00 0.00 0.00 47 1014.2
20260904215517 36 276 1.6 6.4 0.00 0.00 0.00 46 1014.3
20260904215021 36 319 1.6 4.8 0.00 0.00 0.00 46 1014.2
20260904214529 36 331 1.6 4.8 0.00 0.00 0.00 46 1014.3
20260904214017 36 309 1.6 11.3 0.00 0.00 0.00 46 1014.3
20260904213520 36 267 1.6 11.3 0.00 0.00 0.00 44 1014.4
20260904213033 36 292 3.2 11.3 0.00 0.00 0.00 46 1014.4
20260904212519 37 129 1.6 8.0 0.00 0.00 0.00 45 1014.3
20260904212008 37 109 1.6 11.3 0.00 0.00 0.00 46 1014.4
20260904211519 37 323 3.2 11.3 0.00 0.00 0.00 44 1014.4
20260904211014 37 288 3.2 11.3 0.00 0.00 0.00 45 1014.5
20260904210515 36 332 3.2 11.3 0.00 0.00 0.00 45 1014.5
20260904210029 36 333 1.6 14.5 0.00 0.00 0.00 46 1014.5
20260904205518 36 5 4.8 14.5 0.00 0.00 0.00 47 1014.5